Location: *
(46.1866°S, 178.5290°W)
Time: 02:12:18
(UTC+00:00)

Cosmos 1606 - Pass Details

Date: 19 May 2021
Orbit: 503 x 525 km, 82.5° (Epoch: 12 June)

Event Time Altitude Azimuth Distance (km) Brightness Sun altitude
Rises 05:10:41 0° 183° (S) 2,657 6.1 -7.6°
Reaches altitude 10° 05:12:55 10° 176° (S) 1,760 5.2 -7.9°
Maximum altitude 05:16:36 43° 103° (ESE) 739 3.0 -8.5°
Drops below altitude 10° 05:20:14 10° 30° (NNE) 1,731 5.2 -9.1°
Sets 05:22:25 0° 23° (NNE) 2,607 6.2 -9.5°
